152 serials | zombie shooter 2 demo registration key

Date Name Success Rate
2009-10-22 23:49:53 Shooter 1.9.5 63%
2009-10-22 23:27:17 Alien Shooter 83%
2009-10-22 23:44:51 Bubble Shooter 1.0 63%
2011-09-08 10:21:51 Bubble Shooter 33%
2011-09-08 10:21:51 Bubble Shooter 1 17%
2011-09-08 10:21:51 Bubble Shooter 1.0 0%
2011-09-08 10:21:51 Bubble Shooter 1.25 0%
2011-09-08 10:21:51 Bubble Shooter 2.0 40%
2011-09-08 10:21:51 Bubble Shooter 2.12 0%
2011-09-08 10:21:51 Bubble Shooter 2.14 0%
2011-09-08 10:21:51 Bubble Shooter 3.07 0%
2011-09-08 10:21:51 Bubble Shooter v1.0 0%
2011-09-08 10:21:51 Bubble Shooter v1.25 53%
2011-09-08 10:21:51 Bubble Shooter v2.12 48%
2011-09-08 10:21:51 Bubble Shooter v2.14 0%
2011-09-08 10:21:51 Bubble Shooter v3.07 93%
2011-09-08 10:21:51 Bubble Shooter v5.01 0%
2011-09-08 12:47:40 Silhouette Shooter 1.0 53%
2011-09-08 12:47:40 Silhouette Shooter v1.0 0%
2011-09-08 13:20:51 WV Ball Shooter v1.00 0%
2009-10-22 23:44:51 Bubble Shooter Deluxe 20%
2011-09-08 09:57:23 Absolutist Bubble Shooter v1.0 84%
2011-09-08 10:21:51 Bubble Shooter Deluxe 35%
2011-09-08 10:21:51 Bubble Shooter English 1.0 0%
2011-09-08 10:21:51 Bubble Shooter Family v5.01 54%
2011-09-08 10:21:51 Bubble Shooter Russian 1.0 0%
2009-10-17 06:18:11 Absolutist Bubble Shooter Deluxe V1.8 37%
2009-10-17 07:20:07 9Rays Report Sharp-Shooter V1.9.5 100%
2011-09-08 09:57:23 Absolutist Bubble Shooter v1.0 Pocket PC 0%
2011-09-08 10:42:09 DAS Registration 1.5.2 60%
2011-09-08 10:42:09 DAS Registration For CW5 0%
2011-09-08 10:42:09 DAS Registration v1.5.2 0%
2009-10-17 06:27:02 Lazarus Registration DLL V1.0 55%
2009-10-22 23:48:48 MemoriesonTV Registration 0%
2009-10-22 23:49:42 Registration Wizard 68%
2011-09-08 10:06:47 AnetHelpTool v4.02 Registration 52%
2011-09-08 10:22:13 ByeLines Registration 85%
2011-09-08 10:57:42 Ftgate Registration 78%
2011-09-08 11:15:16 Infodex v2.10 Registration 45%
2011-09-08 11:25:08 Lazarus Registration DLL v1.0 47%
2011-09-08 11:27:46 Mac Opener v3.0 Registration 57%
2011-09-08 11:32:59 mIRC v4.5+ Registration 35%
2011-09-08 11:32:59 mIRC v4.52 Registration 51%
2011-09-08 12:37:02 Quant v2.0 Registration 52%
2011-09-08 12:41:14 Registration Suite 1.0 56%
2011-09-08 12:41:14 Registration Suite v1.0 60%
2011-09-08 12:41:14 Registration Wizard Pro 5.01 46%
2011-09-08 12:41:14 Registration Wizard Pro v5.01 60%
2011-09-08 13:18:59 WinHacker 95 v2.02 Registration 57%
2012-12-13 05:12:00 Registration Key : 526EFEF086E09600449E667EA2DAE8E2E6D642BC 65%
2009-10-22 23:27:21 Ardamax Keylogger 2.9 Registration 56%
2009-10-22 23:48:49 Microsoft Registration Hacker - 39%
2009-10-22 23:49:57 SoudForge ALL (No Registration Requiered) 0%
2009-10-22 23:50:26 Valve's Registration Armor Key-Gen 60%
2011-09-08 10:21:42 Browserola v1.01 Temp. Registration 0%
2011-09-08 10:56:11 FontLook v3.1 Registration Code 68%
2011-09-08 11:31:51 Microsoft Registration Hacker 0%
2011-09-08 11:31:51 Microsoft Registration Hacker - 0%
2011-09-08 11:31:51 Microsoft Registration HackerMSREGHACK 0%
2011-09-08 11:32:07 Microstation v5.xx.xx & 95 FULL REGISTRATION 73%
2011-09-08 11:42:43 Nic O'Matic 1.6 Registration Code 65%
2011-09-08 11:42:43 Nic O'Matic v1.6 Registration Code 52%
2011-09-08 12:34:57 PolyTrans V1.2E Registration Activator CD-Key 65%
2011-09-08 12:34:57 PolyView v2.9b16 Registration 0%
2011-09-08 12:54:09 Time Registration (German) 1.10 0%
2011-09-08 12:59:30 Super Collapse Registration 94%
2011-09-08 13:23:15 Yipe! II for Windows Registration #154 0%
2012-12-13 08:49:53 Softwarenetz Time Registration v1.10 0%
2012-12-13 08:49:56 Softwarenetz Time Registration v1.14 0%
2012-12-13 15:34:10 Valve's Registration Armor Key-Gen 0%
2009-10-22 23:48:14 IDE-Fix 97 Demo 0%
2011-09-08 10:42:01 Dan's Demo-It 1.0c 0%
2011-09-08 10:42:01 Dan's Demo-It v1.0c Win 0%
2011-09-08 10:42:51 Demo 1.1 69%
2011-09-08 11:13:48 IDE-Fix 97 Demo 0%
2012-12-12 03:59:46 Bf2 Demo 0%
2009-10-22 23:48:17 Internet Download Manager Registration 55%
2011-09-08 10:25:56 Cheyenne Bitware V4.0 Registration Number 66%
2011-09-08 11:31:51 Microsoft Registration Hacker MSREGHACK 69%
2011-09-08 11:31:51 Microsoft Visual Basic 5 registration cd key 72%
2011-09-08 12:54:14 TimeSlips 10.5 enterprise - with registration code! 0%
2012-12-12 08:07:32 Download avast 5.0.667 Antivirus registration 0%
2012-12-13 05:12:00 Registration Code For PDFZilla Giveaway 42%
2012-12-13 05:12:00 Registration key for x-3gp-video-converter-38540 78%
2012-12-13 13:12:40 Total Image Converter Registration Key 56%
2009-10-22 23:27:17 Al Moazen Demo 0%
2009-10-22 23:48:59 Nero 8 DEMO 20%
2009-10-22 23:49:41 Realbasic Demo 0%
2009-10-22 23:50:03 Swat 4 MP Demo 1.0 0%
2009-10-22 23:50:34 WebTransporter Demo 0%
2011-09-08 10:02:58 Al Moazen Demo 0%
2011-09-08 10:24:46 CD Wizzard Demo from VOB 0%
2011-09-08 10:26:11 Cinema 4D Demo 52%
2011-09-08 10:33:00 CuSeeMe v2.1.1 Demo 0%
2011-09-08 10:42:01 Dan's Demo-It for Windows v1.0c 0%
2011-09-08 10:42:01 Dan's Demo-It v1.0c for Windows 0%
2011-09-08 10:42:01 Dan's Demo-It v1.0c forWindows 0%
2011-09-08 10:42:03 Dans Demo-It v1.0c 0%
2011-09-08 10:42:51 Demo Builder v2.0.07 0%
2011-09-08 10:42:51 Demo Maker +v1.55 0%
2011-09-08 10:42:51 Demo Maker 2.0 0%
2011-09-08 10:42:51 Demo Maker v2.0 0%
2011-09-08 10:42:51 Demo Maker v2.0 2 0%
2011-09-08 10:42:51 Demo Maker v2.0 3 0%
2011-09-08 10:42:51 Demo Maker v2.0 4 0%
2011-09-08 10:42:53 Demo Maker v20 0%
2011-09-08 10:42:53 Demo maker vx.x 0%
2011-09-08 10:42:53 Demo Maker x.x 0%
2011-09-08 10:42:53 Demo Slider 2.0 0%
2011-09-08 10:42:53 Demo Slider v2.0 100%
2011-09-08 10:42:53 Demo Slider v2.0 by TNT 73%
2011-09-08 10:42:53 Demo Workshop 0%
2011-09-08 12:40:45 Realbasic demo 0%
2011-09-08 13:00:29 Swat 4 MP demo 1 0%
2011-09-08 13:23:30 zbrush (demo) 1.55b 80%
2012-12-12 18:27:57 Makeme3d demo 0%
2011-09-08 11:30:16 MediaBlaze 98 v1.01 Win95/NT User: delphic Registration 0%
2012-12-13 05:12:00 Registration code:-826510-16101-266644 54%
2009-10-22 23:44:51 BPM-Studio Demo Version4.9.6.1 0%
2009-10-22 23:46:25 Deadly Shadows Demo 0%
2009-10-22 23:48:45 Macromedia Robo Demo 0%
2009-10-22 23:48:50 MojoWorld 3 Demo Version 0%
2009-10-22 23:49:52 Screen Demo Maker 3.0 0%
2009-10-22 23:50:34 WildForm Wild Fx Demo 3.029 100%
2011-09-08 10:42:51 Demo Maker +v155 0%
2011-09-08 10:42:53 Demo Workshop name: Okware 0%
2011-09-08 10:44:26 Dogs of War DEMO - Version 52%
2011-09-08 11:33:22 MojoWorld 3 Demo Version 0%
2011-09-08 12:37:02 Quant Tracer 4 Demo 0%
2011-09-08 12:37:02 Quant Tracer Demo 4.0 0%
2011-09-08 12:45:49 Screen Demo Maker 3.0 0%
2011-09-08 12:58:59 StormWindows v4.5 Demo License 61%
2009-10-22 23:49:02 Norton Internet Security 2005 Registration Guide 0%
2011-09-08 09:58:40 Acoustica Mixcraft v1.10 Build 15 Registration Info by MaBi 60%
2009-10-22 23:45:55 Contract Jack Multiplayer Demo 0%
2009-10-22 23:45:56 Crocodile Physics 1.7 Standard Demo 1.7 100%
2009-10-22 23:46:26 Demo Builder V5 Retail Fix After Disabled 51%
2009-10-22 23:48:07 HI-TECH PICC-18 Compiler V8.35 PL1 Demo 60%
2009-10-22 23:48:16 IncrediTools Flash Demo Builder V1.2 0%
2009-10-22 23:48:16 IncrediTools Flash Demo Builder V2.0 93%
2011-09-08 10:28:45 Contract Jack Multiplayer demo 0%
2011-09-08 10:32:10 Crocodile Physics 1.7 Standard Demo 1.7 60%
2011-09-08 10:32:10 Crocodile Physics v1.7 Standard Demo 0%
2011-09-08 10:42:53 Demo maker vx.x edit DEMOMAKE.KEY 80%
2011-09-08 11:06:46 HI-TECH PICC-18 Compiler v8.35 PL1 Demo 0%
2011-09-08 11:22:00 KoolMoves Flash Editor v4.7.0 Demo 0%
2012-12-12 19:40:26 Microsoft Visual Basic 2008 Express Edition Registration key 50%
2009-10-17 06:25:11 IncrediTools Flash Demo Builder V1.2-ROGUE 28%
2009-10-22 23:48:49 Microsoft Office Pro 2007 60Tage Demo 0%
2011-09-08 11:31:23 Microsoft Front Page 2002 Demo 0%
2012-12-12 07:18:31 DDR-PenDrive Recovery(demo) 4.0.1.6+crack, serial, keygen, 84%
2011-09-08 10:53:43 Falch.net Falch Demo Version 0%